Regional Weather Roundup
Issued by NWS Charleston, WV

Home | Current Version | Previous Version | Graphics & Text | Print | Product List | Glossary On
Versions: 1 2 3 4 5 6 7 8 9 10 11 12 13 14 15 16 17 18 19 20 21 22 23 24 25 26 27 28 29 30 31 32 33 34 35 36 37 38 39 40 41 42 43 44 45 46 47 48 49 50
011
ASUS41 KRLX 221310
RWRRLX
West Virginia Regional Weather Roundup
National Weather Service Charleston WV
800 AM EST THU FEB 22 2018

Note: "fair" indicates few or no clouds below 12,000 feet with no
significant weather and/or obstructions to visibility.

WVZ003-221400-
Northern Panhandle of West Virginia

CITY           SKY/WX    TMP DP  RH WIND       PRES   REMARKS
WHEELING       RAIN      38  36  92 N12       30.44R FOG
$$

WVZ009-221400-
Northwest West Virginia

CITY           SKY/WX    TMP DP  RH WIND       PRES   REMARKS
PARKERSBURG    RAIN      41  40  96 VRB5      30.41R FOG
$$

WVZ006-221400-
Western West Virginia

CITY           SKY/WX    TMP DP  RH WIND       PRES   REMARKS
HUNTINGTON     CLOUDY    44  42  93 NE8       30.34F FOG
$$

WVZ015-221400-
West Central West Virginia

CITY           SKY/WX    TMP DP  RH WIND       PRES   REMARKS
CHARLESTON     FOG       48  48 100 NW6       30.34R VSB 1/2
$$

WVZ022-031-221400-
North Central West Virginia

CITY           SKY/WX    TMP DP  RH WIND       PRES   REMARKS
CLARKSBURG     CLOUDY    44  41  89 N8        30.35S
MORGANTOWN     LGT RAIN  40  38  93 VRB7      30.38S
$$

WVZ025-035-042-045-221400-
Southern West Virginia

CITY           SKY/WX    TMP DP  RH WIND       PRES   REMARKS
BECKLEY        FAIR      61  56  83 S10       30.37R
LOGAN          FOG       54  54 100 CALM      30.32R VSB<1/4
BLUEFIELD      FAIR      62  53  72 S5        30.40R
LEWISBURG      FOG       50  49  99 CALM      30.40S VSB<1/4
$$

WVZ047-221400-
Northern Mountains of West Virginia

CITY           SKY/WX    TMP DP  RH WIND       PRES   REMARKS
ELKINS         PTSUNNY   54  53  97 CALM      30.34R FOG
$$

WVZ052-221400-
Eastern Panhandle of West Virginia

CITY           SKY/WX    TMP DP  RH WIND       PRES   REMARKS
MARTINSBURG    CLOUDY    45  36  70 N9        30.48R
PETERSBURG     DRIZZLE   47  46  96 N6        30.45R
$$




USA.gov is the U.S. government's official web portal to all federal, state and local government web resources and services.